Notices

What's New in latest Release from April 7th, 2021:

- Updated Glossary, including Speed of Maximum Gust, and Total Hourly Precipitation

- Updated national and regional climate services offices contacts and prices information

- Addition of station inventory lists for 1981-2010, 1971-2000, and 1961-1990 Normals.

If you haven't already, please take our survey and provide feedback about our website: https://eccc.sondage-survey.ca/f/LanguageSelection.aspx?s=442ca660-fcf1-47c0-95a9-59707d6fd709

Hourly Data Report for September 20, 2004

SHERBROOKE A
QUEBEC

45°26'00.000" N
71°41'00.000" W
241.40 m
7028124
71610
YSC

Download Data

Hourly Data (September 2004)
Hourly Data Report for September 20, 2004
TIME
LST
Temp Definition
°C
Dew Point Definition
°C
Rel Hum Definition
%
Precip. Amount Definition
mm

Wind Dir Definition
10's deg

Wind Spd Definition
km/h
Visibility Definition
km
Stn Press Definition
kPa
Hmdx Definition


Wind Chill Definition


Weather Definition


00:00 2.8 2.0 94   22 4 15.0 99.80      
01:00 2.3 1.6 95   24 4 15.0 99.85      
02:00 2.4 1.8 96   21 7 15.0 99.81      
03:00 1.0 0.4 96   28 4 11.3 99.85      
04:00 1.6 0.9 95   23 7 15.0 99.93      
05:00 1.7 1.1 96     0 15.0 99.95      
06:00 0.2 -0.2 97     0 15.0 99.98      
07:00 3.6 3.0 96   23 4 19.3 99.98     Mainly Clear
08:00 6.6 5.3 91   23 7 24.1 99.96     Mainly Clear
09:00 10.5 7.5 82   27 9 24.1 99.92     Mainly Clear
10:00 13.1 7.2 67   28 19 24.1 99.84     Mainly Clear
11:00 15.1 5.0 51   32 15 24.1 99.83     Mostly Cloudy
12:00 15.8 5.8 51   26 13 24.1 99.73     Mostly Cloudy
13:00 16.3 6.0 50   31 17 24.1 99.65     Mostly Cloudy
14:00 16.7 5.4 47   27 19 24.1 99.60     Mainly Clear
15:00 16.4 6.4 52   29 13 24.1 99.51     Mainly Clear
16:00 14.5 6.0 57   29 17 24.1 99.52     Mostly Cloudy
17:00 13.8 6.3 61   27 11 15.0 99.48      
18:00 13.3 6.5 63   25 7 15.0 99.45      
19:00 12.8 7.6 71   23 4 15.0 99.46      
20:00 12.5 7.5 72   23 6 15.0 99.49      
21:00 12.2 7.7 74   25 7 15.0 99.46      
22:00 11.9 8.2 78   23 6 15.0 99.45      
23:00 11.8 8.0 78   23 6 15.0 99.41      

Notes on Data Quality.

Legend

  • E = Estimated
  • M = Missing
  • NA = Not Available*
  • [empty] = Indicates an unobserved value
Date modified: